Weather in Bolshoy Dor

Russia / Kostroma Oblast     58°20′34″N   41°22′58″E
temp.,
°C
wind,
m/s
gust,
m/s
humid.,
%
clouds,
%
prec.,
mm/h
press.,
hPa
HPBL,
m
17 june, thu
thu1700:00+11nw2372100 0.0 101741
03:00+10wnw246848 0.0 101978
06:00+13nw39654 0.0 1019315
09:00+18nw58458 0.0 10211223
12:00+20nw694012 0.0 10222008
15:00+21nnw584285 0.0 10222193
18:00+19nw385310 0.0 10231542
21:00+14nne22770 0.0 102434
18 june, fri
fri1800:00+11ese11790 0.0 102614
03:00+10s228095 0.0 102711
06:00+14s236920 0.0 1027143
09:00+20ssw23539 0.0 1027769
12:00+23wsw34415 0.0 10261613
15:00+25wsw454180 0.0 10241698
18:00+23sw475593 0.0 1023749
21:00+18sw3983100 0.0 1023202
19 june, sat
sat1900:00+16sw311885 0.0 1024239
03:00+15sw312855 0.0 1023278
06:00+18wsw410795 0.0 1023300
09:00+23wsw48565 0.0 1023724
12:00+27w58420 0.0 10221878
15:00+28w58390 0.0 10212147
18:00+26wnw48510 0.0 10201339
21:00+20wsw39810 0.0 1021176
20 june, sun
sun2000:00+18wsw312855 0.0 1022260
03:00+16w23953 0.0 102263
06:00+20wsw24810 0.0 1022153
09:00+25wsw34561 0.0 1022567
12:00+29wsw34410 0.0 10211964
15:00+29sw45411 0.0 10202259
18:00+27sw465715 0.0 1020742
21:00+21sw27830 0.0 1020131
21 june, mon
mon2100:00+19sw36890 0.0 1020119
03:00+17wsw24950 0.0 102170
06:00+20sw25760 0.0 1020168
09:00+25wsw34540 0.0 1020560
12:00+29wsw34423 0.0 10191648
15:00+30wsw34384 0.0 10182427
18:00+28sw465362 0.0 1018668
21:00+21wsw37795 0.0 1019118